• In Lithuania
  • List of Countries
  • For 7 days
  • Water Temperature
  • Satellite Maps
  • Weather Map
  • Weather Widgets
  • user-avatar
    Login

    Hourly Weather Mundahan

    Today, 21 November, Tuesday

    Time Temperature Precipitation Wind Pressure Humidity
    00:00 +23°C° 0 mm 4 mps 743 mmHg 78%
    01:00 +23°C° 0 mm 4 mps 743 mmHg 81%
    02:00 +23°C° 0 mm 4 mps 743 mmHg 81%
    03:00 +23°C° 0 mm 4 mps 743 mmHg 81%
    04:00 +22°C° 0 mm 4 mps 743 mmHg 81%
    05:00 +22°C° 0 mm 4 mps 743 mmHg 82%
    06:00 +22°C° 0 mm 4 mps 743 mmHg 82%
    07:00 +24°C° 0 mm 3 mps 743 mmHg 81%
    08:00 +26°C° 0 mm 4 mps 744 mmHg 75%
    09:00 +27°C° 0 mm 5 mps 744 mmHg 70%
    10:00 +29°C° 0 mm 5 mps 744 mmHg 65%
    11:00 +30°C° 0 mm 5 mps 744 mmHg 62%
    12:00 +32°C° 0 mm 5 mps 743 mmHg 59%
    13:00 +32°C° 0 mm 6 mps 743 mmHg 58%
    14:00 +30°C° 0 mm 6 mps 742 mmHg 59%
    15:00 +30°C° 0 mm 5 mps 742 mmHg 60%
    16:00 +30°C° 0 mm 5 mps 741 mmHg 62%
    17:00 +28°C° 0 mm 5 mps 741 mmHg 65%
    18:00 +27°C° 0 mm 5 mps 742 mmHg 68%
    19:00 +25°C° 0 mm 5 mps 742 mmHg 71%
    20:00 +25°C° 0 mm 5 mps 742 mmHg 72%
    21:00 +23°C° 0 mm 5 mps 743 mmHg 73%
    22:00 +23°C° 0 mm 4 mps 743 mmHg 74%
    23:00 +23°C° 0 mm 4 mps 743 mmHg 75%

    Tomorrow, 22 November, Wednesday

    Time Temperature Precipitation Wind Pressure Humidity
    00:00 +23°C° 0 mm 4 mps 743 mmHg 76%
    01:00 +22°C° 0 mm 4 mps 743 mmHg 78%
    02:00 +22°C° 0 mm 4 mps 743 mmHg 78%
    03:00 +22°C° 0 mm 3 mps 742 mmHg 79%
    04:00 +22°C° 0 mm 3 mps 742 mmHg 80%
    05:00 +22°C° 0 mm 3 mps 742 mmHg 80%
    06:00 +22°C° 0 mm 3 mps 743 mmHg 80%
    07:00 +22°C° 0 mm 3 mps 743 mmHg 80%
    08:00 +25°C° 0 mm 4 mps 743 mmHg 74%
    09:00 +27°C° 0 mm 5 mps 744 mmHg 68%
    10:00 +29°C° 0 mm 5 mps 744 mmHg 62%
    11:00 +30°C° 0 mm 5 mps 743 mmHg 60%
    12:00 +32°C° 0 mm 5 mps 743 mmHg 57%
    13:00 +33°C° 0 mm 5 mps 742 mmHg 54%
    14:00 +33°C° 0 mm 5 mps 742 mmHg 55%
    15:00 +32°C° 0 mm 5 mps 741 mmHg 56%
    16:00 +32°C° 0 mm 5 mps 741 mmHg 57%
    17:00 +29°C° 0 mm 5 mps 741 mmHg 61%
    18:00 +28°C° 0 mm 5 mps 742 mmHg 64%
    19:00 +26°C° 0 mm 5 mps 742 mmHg 68%
    20:00 +25°C° 0.1 mm 5 mps 743 mmHg 70%
    21:00 +23°C° 0.1 mm 5 mps 743 mmHg 73%
    22:00 +22°C° 0.1 mm 4 mps 744 mmHg 75%
    23:00 +22°C° 0 mm 4 mps 744 mmHg 75%

    Day after tomorrow, 23 November, Thursday

    Time Temperature Precipitation Wind Pressure Humidity
    00:00 +22°C° 0 mm 4 mps 743 mmHg 75%
    01:00 +22°C° 0 mm 4 mps 743 mmHg 75%
    02:00 +22°C° 0 mm 4 mps 743 mmHg 75%
    03:00 +22°C° 0 mm 4 mps 743 mmHg 76%
    04:00 +22°C° 0 mm 4 mps 742 mmHg 76%
    05:00 +22°C° 0.1 mm 4 mps 743 mmHg 77%
    06:00 +22°C° 0.1 mm 4 mps 743 mmHg 78%
    07:00 +22°C° 0.1 mm 4 mps 744 mmHg 79%
    08:00 +23°C° 0 mm 5 mps 744 mmHg 75%
    09:00 +25°C° 0 mm 5 mps 745 mmHg 72%
    10:00 +26°C° 0 mm 6 mps 745 mmHg 68%
    11:00 +27°C° 0.1 mm 5 mps 745 mmHg 67%
    12:00 +27°C° 0.1 mm 5 mps 744 mmHg 67%
    13:00 +27°C° 0.1 mm 5 mps 744 mmHg 67%
    14:00 +27°C° 0 mm 5 mps 743 mmHg 68%
    15:00 +26°C° 0 mm 5 mps 743 mmHg 69%
    16:00 +26°C° 0 mm 5 mps 742 mmHg 70%
    17:00 +25°C° 0 mm 5 mps 743 mmHg 71%
    18:00 +25°C° 0 mm 5 mps 743 mmHg 72%
    19:00 +23°C° 0 mm 5 mps 744 mmHg 72%
    20:00 +23°C° 0 mm 5 mps 744 mmHg 71%
    21:00 +22°C° 0 mm 5 mps 745 mmHg 70%
    22:00 +22°C° 0 mm 6 mps 745 mmHg 69%
    23:00 +22°C° 0 mm 5 mps 745 mmHg 69%

    24 November, Friday

    Time Temperature Precipitation Wind Pressure Humidity
    00:00 +21°C° 0 mm 5 mps 745 mmHg 70%
    01:00 +21°C° 0 mm 5 mps 744 mmHg 70%
    02:00 +21°C° 0 mm 5 mps 744 mmHg 71%
    03:00 +21°C° 0 mm 5 mps 744 mmHg 71%
    04:00 +21°C° 0 mm 5 mps 743 mmHg 72%
    05:00 +21°C° 0 mm 5 mps 744 mmHg 73%
    06:00 +21°C° 0 mm 5 mps 744 mmHg 74%
    07:00 +21°C° 0 mm 5 mps 745 mmHg 75%
    08:00 +22°C° 0 mm 6 mps 745 mmHg 69%
    09:00 +24°C° 0 mm 7 mps 746 mmHg 64%
    10:00 +27°C° 0 mm 7 mps 746 mmHg 59%
    11:00 +28°C° 0 mm 7 mps 745 mmHg 56%
    12:00 +29°C° 0 mm 7 mps 745 mmHg 53%
    13:00 +30°C° 0 mm 7 mps 744 mmHg 50%
    14:00 +30°C° 0 mm 7 mps 744 mmHg 52%
    15:00 +29°C° 0 mm 7 mps 743 mmHg 54%
    16:00 +29°C° 0 mm 6 mps 743 mmHg 56%
    17:00 +27°C° 0 mm 6 mps 744 mmHg 59%
    18:00 +24°C° 0 mm 6 mps 744 mmHg 63%
    19:00 +23°C° 0 mm 6 mps 745 mmHg 67%
    20:00 +22°C° 0 mm 6 mps 745 mmHg 69%
    21:00 +21°C° 0 mm 5 mps 746 mmHg 71%
    22:00 +21°C° 0 mm 5 mps 746 mmHg 72%
    23:00 +20°C° 0 mm 5 mps 746 mmHg 73%

    25 November, Saturday

    Time Temperature Precipitation Wind Pressure Humidity
    00:00 +20°C° 0 mm 4 mps 745 mmHg 74%
    01:00 +20°C° 0 mm 4 mps 745 mmHg 75%
    02:00 +20°C° 0 mm 4 mps 745 mmHg 75%
    03:00 +20°C° 0 mm 4 mps 744 mmHg 76%
    04:00 +20°C° 0 mm 4 mps 744 mmHg 76%
    05:00 +20°C° 0 mm 4 mps 745 mmHg 76%
    06:00 +20°C° 0 mm 4 mps 745 mmHg 76%
    07:00 +20°C° 0 mm 3 mps 746 mmHg 77%
    08:00 +22°C° 0 mm 4 mps 746 mmHg 71%
    09:00 +25°C° 0 mm 5 mps 747 mmHg 66%
    10:00 +27°C° 0 mm 6 mps 747 mmHg 60%
    11:00 +28°C° 0 mm 6 mps 746 mmHg 58%
    12:00 +29°C° 0 mm 5 mps 745 mmHg 56%
    13:00 +30°C° 0 mm 5 mps 744 mmHg 54%
    14:00 +30°C° 0 mm 5 mps 744 mmHg 55%
    15:00 +30°C° 0 mm 5 mps 743 mmHg 56%
    16:00 +30°C° 0 mm 5 mps 743 mmHg 57%
    17:00 +28°C° 0 mm 5 mps 744 mmHg 61%
    18:00 +26°C° 0 mm 5 mps 744 mmHg 65%
    19:00 +25°C° 0 mm 5 mps 745 mmHg 69%
    20:00 +23°C° 0 mm 5 mps 745 mmHg 71%
    21:00 +22°C° 0 mm 4 mps 745 mmHg 73%
    22:00 +22°C° 0 mm 4 mps 746 mmHg 75%
    23:00 +22°C° 0 mm 4 mps 745 mmHg 76%

    26 November, Sunday

    Time Temperature Precipitation Wind Pressure Humidity
    00:00 +21°C° 0 mm 4 mps 745 mmHg 77%
    01:00 +21°C° 0 mm 3 mps 745 mmHg 78%
    02:00 +21°C° 0 mm 3 mps 745 mmHg 79%
    03:00 +21°C° 0 mm 3 mps 745 mmHg 79%
    04:00 +21°C° 0 mm 3 mps 744 mmHg 80%
    05:00 +21°C° 0 mm 3 mps 745 mmHg 80%
    06:00 +21°C° 0 mm 3 mps 745 mmHg 81%
    07:00 +21°C° 0 mm 3 mps 746 mmHg 81%
    08:00 +25°C° 0 mm 4 mps 746 mmHg 74%
    09:00 +27°C° 0 mm 5 mps 746 mmHg 67%
    10:00 +29°C° 0 mm 5 mps 746 mmHg 60%
    11:00 +30°C° 0 mm 6 mps 745 mmHg 56%
    12:00 +33°C° 0 mm 6 mps 744 mmHg 53%
    13:00 +34°C° 0 mm 6 mps 743 mmHg 49%
    14:00 +34°C° 0 mm 6 mps 743 mmHg 50%
    15:00 +33°C° 0 mm 6 mps 743 mmHg 52%
    16:00 +33°C° 0 mm 6 mps 742 mmHg 53%
    17:00 +30°C° 0 mm 5 mps 743 mmHg 57%
    18:00 +28°C° 0 mm 5 mps 743 mmHg 61%
    19:00 +27°C° 0 mm 5 mps 744 mmHg 65%
    20:00 +26°C° 0 mm 5 mps 744 mmHg 68%
    21:00 +25°C° 0 mm 4 mps 744 mmHg 71%
    22:00 +23°C° 0 mm 4 mps 744 mmHg 73%
    23:00 +23°C° 0 mm 4 mps 744 mmHg 74%
    Show more